Location: El Para�so
(10.4896°N, 66.9245°W)
Time: 20:20:20
(UTC+00:00)

Yuri Rocket - Pass Details

Date: 08 August 2020
Orbit: 567 x 1914 km, 28.2° (Epoch: 01 October)

Event Time Altitude Azimuth Distance (km) Brightness Sun altitude
Rises 23:01:40 0° 237° (WSW) 3,274 7.4 -3.9°
Reaches altitude 10° 23:04:25 10° 234° (SW) 2,181 6.4 -4.5°
Maximum altitude 23:09:16 67° 152° (SSE) 662 3.1 -5.7°
Drops below altitude 10° 23:13:24 10° 69° (ENE) 1,859 5.1 -6.6°
Enters shadow 23:15:12 - 67° (ENE) 2,590 5.8 -7.1°
